Weather in Bolshaya Rechka

Russia / Zabaykalsky Krai     50°34′35″N   109°58′53″E
temp.,
°C
wind,
m/s
gust,
m/s
humid.,
%
clouds,
%
prec.,
mm/h
press.,
hPa
HPBL,
m
5 december, sun
sun500:00−12sw1192100 0.0 102411
03:00−11wsw119387 0.0 102511
06:00−14sw119570 0.0 102712
09:00−12sw1196100 0.0 102833
12:00−7wsw2691100 0.4 1027338
15:00−5wnw6147697 0.8 10261581
18:00−7w5148084 0.1 10301217
21:00−11wsw39877 0.1 1034294
6 december, mon
mon600:00−15sw119625 0.0 103719
03:00−16sw119753 0.0 103613
06:00−17sw119756 0.0 103512
09:00−16ssw119549 0.0 103314
12:00−9w127824 0.0 1029128
15:00−4wnw14672 0.0 1024293
18:00−11ssw11915 0.0 102711
21:00−13sse119125 0.0 102911
7 december, tue
tue700:00−14se119233 0.0 103010
03:00−15se119235 0.0 103010
06:00−16se119361 0.0 103110
09:00−16ese119338 0.0 103110
12:00−8n117032 0.0 102876
15:00−4n106628 0.0 1023102
18:00−10ese119095 0.0 102511
21:00−10e1188100 0.0 102314
8 december, wed
wed800:00−13se1190100 0.0 102310
03:00−12sse0191100 0.0 102210
06:00−12se0193100 0.0 102010
09:00−12sw1193100 0.0 102110
12:00−9w1279100 0.0 102094
15:00−7w1275100 0.0 1019143
18:00−8wsw1292100 0.0 102238
21:00−10wsw119669 0.0 102626
9 december, thu
thu900:00−14sw119736 0.0 103012
03:00−16sw119759 0.0 103211
06:00−17sw119879 0.0 103411
09:00−16ssw119876 0.1 103512
12:00−11nw008792 0.0 1033116
15:00−9nnw0183100 0.1 1031222
18:00−10nnw0097100 0.3 103325
21:00−10nw1296100 0.8 103597